星链-11596 (STARLINK-11596)

导读 | 星芒AI

STARLINK-11596 是 SpaceX Starlink 卫星互联网项目中的一颗低轨卫星,属于第5批部署的星链卫星之一。该卫星于2020年11月25日由猎鹰9号火箭从肯尼迪航天中心发射升空,运行在约550公里高的近地轨道上。Starlink 项目旨在通过部署数千颗卫星,为全球提供高速、低延迟的宽带互联网服务,尤其关注偏远和网络覆盖不足的地区。STARLINK-11596 采用先进通信技术,支持全球用户接入互联网,并具备自动避障功能以确保太空安全。

基本信息
目录编号:
64321
目录名称:
STARLINK-11596
国际标识:
2025-124E
轨道中心:
EARTH
卫星名称:
星链-11596
卫星全名:
星链-11596 (STARLINK-11596)
卫星状态:
在轨 (已飞行194 天)
发射日期:
2025-06-10 UTC
国别 :
美国 (US)
星等 :
--
轨道信息
数据来源 国际轨道数据
星历时间: 2025-12-21T10:40:58+0800
19小时前
查看轨道信息
半长轴: 6734.503km
偏心率: 0.0001542
轨道倾角: 43.000°
近地点辐角 299.384°
升交点赤经 143.079°
平近点角 60.687°
近地点: 355.327km
远地点: 357.405km
周期: 91.668分钟
每日圈数: 15.708853
详细信息
固有亮度:
5
最大亮度:
2.5
卫星平台:
Starlink V1.0
覆盖范围:
全球
运营商:
太空探索技术公司
运营商所在国:
美国
制造商(研发单位):
太空探索技术公司
制造商所在国:
美国
使用方式:
暂无
卫星简介
Starlink 计划是 SpaceX 推出的全球卫星互联网项目,通过发射低轨道卫星,为全球尤其是偏远地区提供高速、低延迟的互联网服务。自 2019 年起,Starlink 已部署数千颗卫星,旨在缩小全球数字鸿沟,推动互联网普及。该项目还为军事、航空等行业提供通信支持,带来广泛经济效益。
2D轨道图
3D轨道图
轨道高度分析图
轨道倾角分析图
轨道综合分析图
查看轨道综合分析图